Starlink 34937

operational
NORAD ID: 66193 Int'l Des: 2025-243 Owner: SPXS Country: US Constellation: starlink
LEOCIRCULAR

关于 Starlink 34937

正在加载描述...

实时位置

正在加载3D地球...

即将过境

高度历史

Altitude vs Time

uPlot chart will show altitude changes over time

两行轨道根数

1 66193C 25243R 25299.73937500 .00795660 00000+0 13047-2 0 2994
2 66193 53.1580 157.0549 0009092 275.2109 40.1437 16.01616463 10
Epoch: Oct 26, 2025 • Age: 127 hours

当前状态

高度 245.7 km
速度 7.76 km/s
星下点 -9.45°S, 17.49°W
发射日期 Oct 26, 2025
运行时间 4 days
类型 internet

技术详情

分类 Payload
质量 575.00 kg
干质量 530.00 kg
总质量 575.00 kg
长度 0.30 m
直径 4.10 m
跨度 29.00 m
形状 Box + pan
制造商 SPXS
平台类型 Starlink V2MO
阶段状态 In Orbit
所有者/国家 SPXS/US

大型星座

Loading constellations...